Regional Weather Roundup
Issued by NWS

Home | Current Version | Previous Version | Graphics & Text | Print | Product List | Glossary On
Versions: 1 2 3 4 5 6 7 8 9 10 11 12 13 14 15 16 17 18 19 20 21 22 23 24 25 26 27 28 29 30 31 32 33 34 35 36 37 38 39 40 41 42 43 44 45 46 47 48 49 50
000
ASUS43 KMKX 272000
RWRWI

WISCONSIN REGIONAL WEATHER ROUNDUP
NATIONAL WEATHER SERVICE MILWAUKEE/SULLIVAN WI
200 PM CST THU NOV 27 2014

NOTE: "FAIR" INDICATES FEW OR NO CLOUDS BELOW 12,000 FEET WITH NO
SIGNIFICANT WEATHER AND/OR OBSTRUCTIONS TO VISIBILITY.

WIZ001-002-006>008-014>016-023>028-272100-
NORTHWEST WISCONSIN

CITY           SKY/WX    TMP DP  RH WIND       PRES   REMARKS
SUPERIOR ARPT  SUNNY     10  -5  51 W3        30.44S
ASHLAND        SUNNY     10   1  67 W7        30.41F WCI  -1
HAYWARD        SUNNY      6  -2  69 CALM      30.38F
SIREN          SUNNY      9  -5  51 W5        30.42F WCI   1
CUMBERLAND     SUNNY      9  -6  52 W6        30.39F WCI  -1
RICE LAKE      SUNNY      8  -5  56 NW3       30.42F
CHETEK         SUNNY      8  -6  52 NW5       30.41F WCI   0
LADYSMITH      SUNNY     11  -2  57 W6        30.38F WCI   1
EAU CLAIRE     SUNNY      9  -2  61 W8        30.42F WCI  -3
MENOMONIE      SUNNY     10  -5  50 W6        30.44F WCI   1
NEW RICHMOND   SUNNY      9  -5  53 W5        30.44F WCI   0
OSCEOLA        SUNNY      9  -4  55 SW3       30.48F
$$

WIZ003>005-009-010-017-018-272100-
NORTH CENTRAL WISCONSIN

CITY           SKY/WX    TMP DP  RH WIND       PRES   REMARKS
MANITOWISH WTR CLOUDY    10   1  69 N6        30.30S HAZE    WCI   0
ARBOR VITAE    PTSUNNY   11   3  70 NW6       30.29F WCI   2
WOODRUFF       PTSUNNY   11   3  70 NW6       30.29F WCI   2
RHINELANDER    PTSUNNY   10   0  63 NW7       30.29S WCI  -1
EAGLE RIVER    SUNNY      9  -1  62 NW7       30.27F WCI  -2
LAND O LAKES   CLOUDY    13   2  63 N7G16     30.28F WCI   2
PHILLIPS       SUNNY     10  -1  62 CALM      30.32F
TOMAHAWK       MOSUNNY   12   1  62 CALM      30.31F
MEDFORD        SUNNY     11   0  61 NW6       30.32F WCI   2
MERRILL        SUNNY     14   1  57 N5        30.32S WCI   6
$$

WIZ029-030-035-036-043>047-272100-
CENTRAL WISCONSIN

CITY           SKY/WX    TMP DP  RH WIND       PRES   REMARKS
WAUSAU         SUNNY     14   1  56 NW10      30.32S WCI   1
MOSINEE        SUNNY     12   7  79 W8        30.34S WCI   1
MARSHFIELD     SUNNY     10   0  63 NW9       30.35F WCI  -3
STEVENS POINT  PTSUNNY   13   4  66 W7        30.35S WCI   3
WAUPACA        SUNNY     20   8  58 NW10      30.36S WCI   9
WAUTOMA        NOT AVBL
WISC RAPIDS    SUNNY     13   2  61 NW7       30.38S WCI   3
CAMP DOUGLAS   NOT AVBL
$$

WIZ011>013-019>022-031-037>040-048>050-272100-
NORTHEAST WISCONSIN

CITY           SKY/WX    TMP DP  RH WIND       PRES   REMARKS
ANTIGO         MOSUNNY   12   1  62 N7        30.29S WCI   1
SHAWANO        SUNNY     19   5  53 NW8       30.34S WCI   9
OCONTO         SUNNY     17   3  53 NW7       30.34S WCI   8
STURGEON BAY   MOSUNNY   18   3  53 NW13      30.32S WCI   4
GREEN BAY      SUNNY     19   6  57 NW13      30.35S WCI   6
MANITOWOC      NOT AVBL
APPLETON       PTSUNNY   18   7  62 NW9       30.34F WCI   6
CLINTONVILLE   SUNNY     19   5  53 NW9       30.34F WCI   9
OSHKOSH        MOSUNNY   17   8  67 MISG      30.34F
$$

WIZ032>034-041-042-053>061-272100-
SOUTHWEST WISCONSIN

CITY           SKY/WX    TMP DP  RH WIND       PRES   REMARKS
LA CROSSE      SUNNY     14   0  53 N9        30.44F WCI   2
SPARTA         SUNNY     14   1  56 NW8       30.42F WCI   3
VIROQUA        SUNNY     12  -1  55 NW9       30.37S WCI   0
BOSCOBEL       SUNNY     18   0  45 NW8       30.42S WCI   8
PRAIRIE DU CHI SUNNY     17  -3  41 NW8       30.43F WCI   6
PLATTEVILLE    SUNNY     18   2  50 NW9       30.38S WCI   7
$$

WIZ056-057-062-063-064-067-068-272100-
SOUTH CENTRAL WISCONSIN

CITY           SKY/WX    TMP DP  RH WIND       PRES   REMARKS
REEDSBURG      SUNNY     14   5  67 NW7       30.38S WCI   4
BARABOO/DELLS  SUNNY     15   6  66 NW8       30.36F WCI   4
LONE ROCK      NOT AVBL
MINERAL POINT  SUNNY     21   5  49 NW10      30.35S WCI  10
MADISON        MOSUNNY   19   8  62 NW9       30.36S WCI   8
MIDDLETON      SUNNY     21  10  60 NW9       30.36S WCI  11
WATERTOWN      FLURRIES  18  12  77 N10       30.35S WCI   6
MONROE         CLOUDY    21  12  68 NW6       30.34S WCI  14
JANESVILLE     PTSUNNY   21  12  68 N12       30.35S WCI   9
$$

WIZ051-052-058>065-066-070>072-272100-
SOUTHEAST WISCONSIN

CITY           SKY/WX    TMP DP  RH WIND       PRES   REMARKS
MILWAUKEE      FLURRIES  22  12  65 NW9       30.34R WCI  12
WAUKESHA       FLURRIES  18  10  73 NW13      30.34S WCI   4
MILWAUKEE/TIMM CLOUDY    21  12  68 NW10      30.34S WCI  10
RACINE         CLOUDY    22  12  65 NW8       30.35R WCI  12
BURLINGTON     FLURRIES  19  12  75 N12       30.34S WCI   6
KENOSHA        CLOUDY    21  13  71 NW14      30.34R WCI   8
FOND DU LAC    SUNNY     17   7  64 NW9       30.35S WCI   6
SHEBOYGAN      SUNNY     18   6  59 NW10      30.33F WCI   6
WEST BEND      PTSUNNY   19  10  68 NW7       30.32F WCI  10
JUNEAU         FLURRIES  17  10  71 NW10      30.35S WCI   5
$$

LSZ147-162-272100-
LAKE SUPERIOR

STATION/POSITION TIME  TEMP    WIND        PRES    WAVE
                       AIR SEA DIR/SP/G            HT/PER
                 (UTC) (F)     (DEG/KT/KT) (MB)    (FT/S)
DEVILS ISLAND    1900   11     320/  8/ 11 1031.7F
PORT WING        1900    8     220/  6/ 10 1030.5F
SAXON HARBOR     1900   13     300/  7/ 10 1029.5F
$$

LMZ867-665-643>646-272100-
LAKE MICHIGAN

STATION/POSITION TIME  TEMP    WIND        PRES    WAVE
                       AIR SEA DIR/SP/G            HT/PER
                 (UTC) (F)     (DEG/KT/KT) (MB)    (FT/S)
CHAMBERS ISLAND  1900   20     300/ 11/ 18 1026.8S
N MID LAKE BUOY  1850   20 42  330/ 19/ 23 1026.3R   4/ 5
NORTHPORT PIER   1909   19     310/ 15/ 25 1026.1S
SISTER BAY       1843           10/ 19/ 25   N/A
ALGOMA LAKESHORE 1913          340/ 12/ 15   N/A
KEWAUNEE LAKESHO 1900   17     330/ 11/ 16 1026.3R
SHEBOYGAN LAKESH 1900   18 35  330/ 15/ 18 1028.9R
PORT WASHINGTON  1900   21     310/  9/ 13 1028.1
MILWAUKEE LAKESH 1900   22     330/ 10/ 14   N/A
S MID LAKE BUOY  1850   28 42  320/ 21/ 25 1026.1R   7/ 7
KENOSHA   LAKESH 1900   22     330/ 15/ 19 1027.1S
$$

TC  - TEMPERATURE IN CELSIUS
VSB - VISIBILITY IN STATUTE MILES
WCI - WIND CHILL INDEX
HX  - HEAT INDEX



USA.gov is the U.S. government's official web portal to all federal, state and local government web resources and services.